Location: Barruelo
(41.2448°N, 3.8231°W)
Time: 02:03:34
(UTC+00:00)

SKYMED 2 - Pass Details

Date: 11 December 2025
Orbit: 622 x 623 km, 97.9° (Epoch: 14 January)

Event Time Altitude Azimuth Distance (km) Brightness Sun altitude
Exits shadow 18:35:32 13° 7° (N) 1,815 5.7 -19.8°
Maximum altitude 18:39:24 69° 285° (WNW) 670 3.8 -20.5°
Drops below altitude 10° 18:43:41 10° 203° (SSW) 1,984 6.6 -21.3°
Sets 18:45:52 0° 200° (SSW) 2,886 7.4 -21.7°
